Terminal Aerodrome Forecast
Issued by NWS

Home | Current Version | Previous Version | Text Only | Print | Product List | Glossary On
Versions: 1 2 3 4 5 6 7 8 9 10 11 12 13 14
000
FTUS45 KVEF 072320
TAFHND
TAF
KHND 072320Z 0800/0824 03010KT P6SM BKN250
     FM080600 16006KT P6SM BKN250
     FM081900 04006KT P6SM BKN250=

USA.gov is the U.S. government's official web portal to all federal, state and local government web resources and services.